Year,Month,Day,Hour,Minute,Value (Times are PST for temperature in C)
2009,10,27,00,00,3.90
2009,10,27,00,01,3.90
2009,10,27,00,02,3.90
2009,10,27,00,03,3.90
2009,10,27,00,04,3.90
2009,10,27,00,05,3.90
2009,10,27,00,06,3.90
2009,10,27,00,07,3.90
2009,10,27,00,08,3.90
2009,10,27,00,09,3.90
2009,10,27,00,10,3.90
2009,10,27,00,11,3.90
2009,10,27,00,12,3.90
2009,10,27,00,13,3.90
2009,10,27,00,14,3.90
2009,10,27,00,15,3.90
2009,10,27,00,16,3.90
2009,10,27,00,17,3.90
2009,10,27,00,18,3.90
2009,10,27,00,19,3.90
2009,10,27,00,20,3.90
2009,10,27,00,21,3.90
2009,10,27,00,22,3.90
2009,10,27,00,23,3.90
2009,10,27,00,24,3.90
2009,10,27,00,25,3.90
2009,10,27,00,26,3.90
2009,10,27,00,27,3.80
2009,10,27,00,28,3.80
2009,10,27,00,29,3.80
2009,10,27,00,30,3.80
2009,10,27,00,31,3.80
2009,10,27,00,32,3.80
2009,10,27,00,33,3.80
2009,10,27,00,34,3.80
2009,10,27,00,35,3.80
2009,10,27,00,36,3.80
2009,10,27,00,37,3.70
2009,10,27,00,38,3.70
2009,10,27,00,39,3.80
2009,10,27,00,40,3.80
2009,10,27,00,41,3.80
2009,10,27,00,42,3.80
2009,10,27,00,43,3.80
2009,10,27,00,44,3.70
2009,10,27,00,45,3.70
2009,10,27,00,46,3.70
2009,10,27,00,47,3.70
2009,10,27,00,48,3.70
2009,10,27,00,49,3.70
2009,10,27,00,50,3.70
2009,10,27,00,51,3.60
2009,10,27,00,52,3.60
2009,10,27,00,53,3.60
2009,10,27,00,54,3.60
2009,10,27,00,55,3.50
2009,10,27,00,56,3.50
2009,10,27,00,57,3.50
2009,10,27,00,58,3.50
2009,10,27,00,59,3.50
2009,10,27,01,00,3.40
2009,10,27,01,01,3.40
2009,10,27,01,02,3.40
2009,10,27,01,03,3.40
2009,10,27,01,04,3.30
2009,10,27,01,05,3.30
2009,10,27,01,06,3.30
2009,10,27,01,07,3.30
2009,10,27,01,08,3.30
2009,10,27,01,09,3.30
2009,10,27,01,10,3.20
2009,10,27,01,11,3.20
2009,10,27,01,12,3.20
2009,10,27,01,13,3.20
2009,10,27,01,14,3.20
2009,10,27,01,15,3.20
2009,10,27,01,16,3.20
2009,10,27,01,17,3.20
2009,10,27,01,18,3.10
2009,10,27,01,19,3.10
2009,10,27,01,20,3.10
2009,10,27,01,21,3.10
2009,10,27,01,22,3.10
2009,10,27,01,23,3.10
2009,10,27,01,24,3.10
2009,10,27,01,25,3.10
2009,10,27,01,26,3.10
2009,10,27,01,27,3.10
2009,10,27,01,28,3.10
2009,10,27,01,29,3.10
2009,10,27,01,30,3.10
2009,10,27,01,31,3.10
2009,10,27,01,32,3.10
2009,10,27,01,33,3.10
2009,10,27,01,34,3.10
2009,10,27,01,35,3.10
2009,10,27,01,36,3.10
2009,10,27,01,37,3.10
2009,10,27,01,38,3.10
2009,10,27,01,39,3.10
2009,10,27,01,40,3.10
2009,10,27,01,41,3.10
2009,10,27,01,42,3.00
2009,10,27,01,43,3.00
2009,10,27,01,44,3.10
2009,10,27,01,45,3.00
2009,10,27,01,46,3.10
2009,10,27,01,47,3.10
2009,10,27,01,48,3.00
2009,10,27,01,49,3.00
2009,10,27,01,50,3.00
2009,10,27,01,51,3.00
2009,10,27,01,52,2.90
2009,10,27,01,53,2.90
2009,10,27,01,54,2.90
2009,10,27,01,55,2.90
2009,10,27,01,56,2.90
2009,10,27,01,57,2.90
2009,10,27,01,58,2.90
2009,10,27,01,59,2.90
2009,10,27,02,00,2.90
2009,10,27,02,01,2.90
2009,10,27,02,02,2.90
2009,10,27,02,03,2.90
2009,10,27,02,04,2.90
2009,10,27,02,05,3.00
2009,10,27,02,06,3.00
2009,10,27,02,07,3.00
2009,10,27,02,08,3.00
2009,10,27,02,09,3.00
2009,10,27,02,10,3.00
2009,10,27,02,11,3.00
2009,10,27,02,12,3.00
2009,10,27,02,13,3.10
2009,10,27,02,14,3.10
2009,10,27,02,15,3.10
2009,10,27,02,16,3.10
2009,10,27,02,17,3.10
2009,10,27,02,18,3.10
2009,10,27,02,19,3.00
2009,10,27,02,20,3.00
2009,10,27,02,21,3.00
2009,10,27,02,22,3.00
2009,10,27,02,23,3.00
2009,10,27,02,24,3.00
2009,10,27,02,25,3.00
2009,10,27,02,27,3.00
2009,10,27,02,28,3.00
2009,10,27,02,29,2.90
2009,10,27,02,30,2.90
2009,10,27,02,31,2.90
2009,10,27,02,32,2.90
2009,10,27,02,33,2.90
2009,10,27,02,34,2.80
2009,10,27,02,35,2.80
2009,10,27,02,36,2.80
2009,10,27,02,37,2.80
2009,10,27,02,38,2.80
2009,10,27,02,39,2.80
2009,10,27,02,40,2.80
2009,10,27,02,41,2.80
2009,10,27,02,42,2.80
2009,10,27,02,43,2.80
2009,10,27,02,44,2.80
2009,10,27,02,45,2.80
2009,10,27,02,46,2.80
2009,10,27,02,47,2.80
2009,10,27,02,48,2.80
2009,10,27,02,49,2.80
2009,10,27,02,50,2.80
2009,10,27,02,51,2.90
2009,10,27,02,52,2.90
2009,10,27,02,53,2.90
2009,10,27,02,54,2.90
2009,10,27,02,55,2.90
2009,10,27,02,56,2.90
2009,10,27,02,57,3.00
2009,10,27,02,58,2.90
2009,10,27,02,59,3.00
2009,10,27,03,00,3.00
2009,10,27,03,01,3.00
2009,10,27,03,02,3.00
2009,10,27,03,03,3.00
2009,10,27,03,04,3.00
2009,10,27,03,05,3.00
2009,10,27,03,06,3.00
2009,10,27,03,07,3.00
2009,10,27,03,08,3.00
2009,10,27,03,09,3.00
2009,10,27,03,10,3.10
2009,10,27,03,11,3.00
2009,10,27,03,12,3.00
2009,10,27,03,13,3.00
2009,10,27,03,14,3.00
2009,10,27,03,15,2.90
2009,10,27,03,16,2.90
2009,10,27,03,17,2.90
2009,10,27,03,18,2.80
2009,10,27,03,19,2.80
2009,10,27,03,20,2.80
2009,10,27,03,21,2.80
2009,10,27,03,22,2.70
2009,10,27,03,23,2.70
2009,10,27,03,24,2.70
2009,10,27,03,25,2.70
2009,10,27,03,26,2.80
2009,10,27,03,27,2.80
2009,10,27,03,28,2.80
2009,10,27,03,29,2.70
2009,10,27,03,30,2.80
2009,10,27,03,31,2.70
2009,10,27,03,32,2.70
2009,10,27,03,33,2.70
2009,10,27,03,34,2.70
2009,10,27,03,35,2.70
2009,10,27,03,36,2.70
2009,10,27,03,37,2.60
2009,10,27,03,38,2.60
2009,10,27,03,39,2.60
2009,10,27,03,40,2.60
2009,10,27,03,41,2.50
2009,10,27,03,42,2.50
2009,10,27,03,43,2.50
2009,10,27,03,44,2.40
2009,10,27,03,45,2.40
2009,10,27,03,46,2.30
2009,10,27,03,47,2.30
2009,10,27,03,48,2.30
2009,10,27,03,49,2.30
2009,10,27,03,50,2.30
2009,10,27,03,51,2.20
2009,10,27,03,52,2.20
2009,10,27,03,53,2.20
2009,10,27,03,54,2.20
2009,10,27,03,55,2.10
2009,10,27,03,56,2.10
2009,10,27,03,57,2.10
2009,10,27,03,58,2.00
2009,10,27,03,59,2.00
2009,10,27,04,00,1.90
2009,10,27,04,01,1.90
2009,10,27,04,02,1.90
2009,10,27,04,03,1.90
2009,10,27,04,05,1.90
2009,10,27,04,06,1.90
2009,10,27,04,07,1.90
2009,10,27,04,08,1.90
2009,10,27,04,09,2.00
2009,10,27,04,10,2.00
2009,10,27,04,11,2.00
2009,10,27,04,12,2.00
2009,10,27,04,13,2.00
2009,10,27,04,14,2.00
2009,10,27,04,15,2.00
2009,10,27,04,16,2.00
2009,10,27,04,17,2.00
2009,10,27,04,18,2.00
2009,10,27,04,19,2.00
2009,10,27,04,20,1.90
2009,10,27,04,21,1.90
2009,10,27,04,22,1.90
2009,10,27,04,23,1.90
2009,10,27,04,24,1.90
2009,10,27,04,25,1.80
2009,10,27,04,26,1.80
2009,10,27,04,27,1.80
2009,10,27,04,28,1.80
2009,10,27,04,29,1.80
2009,10,27,04,30,1.80
2009,10,27,04,31,1.80
2009,10,27,04,32,1.90
2009,10,27,04,33,1.90
2009,10,27,04,34,2.00
2009,10,27,04,35,2.00
2009,10,27,04,36,2.10
2009,10,27,04,37,2.10
2009,10,27,04,38,2.20
2009,10,27,04,39,2.30
2009,10,27,04,40,2.30
2009,10,27,04,41,2.30
2009,10,27,04,42,2.40
2009,10,27,04,43,2.50
2009,10,27,04,44,2.50
2009,10,27,04,45,2.60
2009,10,27,04,46,2.70
2009,10,27,04,47,2.70
2009,10,27,04,48,2.80
2009,10,27,04,49,2.90
2009,10,27,04,50,3.00
2009,10,27,04,51,3.00
2009,10,27,04,52,3.10
2009,10,27,04,53,3.10
2009,10,27,04,54,3.10
2009,10,27,04,55,3.00
2009,10,27,04,56,3.00
2009,10,27,04,57,2.90
2009,10,27,04,58,2.90
2009,10,27,04,59,2.80
2009,10,27,05,00,2.80
2009,10,27,05,01,2.80
2009,10,27,05,02,2.70
2009,10,27,05,03,2.70
2009,10,27,05,04,2.70
2009,10,27,05,05,2.60
2009,10,27,05,06,2.60
2009,10,27,05,07,2.50
2009,10,27,05,08,2.50
2009,10,27,05,09,2.40
2009,10,27,05,10,2.40
2009,10,27,05,11,2.40
2009,10,27,05,12,2.40
2009,10,27,05,13,2.40
2009,10,27,05,14,2.30
2009,10,27,05,15,2.30
2009,10,27,05,16,2.30
2009,10,27,05,17,2.40
2009,10,27,05,18,2.40
2009,10,27,05,19,2.40
2009,10,27,05,20,2.40
2009,10,27,05,21,2.40
2009,10,27,05,22,2.40
2009,10,27,05,23,2.40
2009,10,27,05,24,2.40
2009,10,27,05,25,2.50
2009,10,27,05,26,2.50
2009,10,27,05,27,2.50
2009,10,27,05,28,2.60
2009,10,27,05,29,2.60
2009,10,27,05,30,2.60
2009,10,27,05,31,2.60
2009,10,27,05,32,2.60
2009,10,27,05,33,2.60
2009,10,27,05,34,2.60
2009,10,27,05,35,2.60
2009,10,27,05,36,2.60
2009,10,27,05,37,2.60
2009,10,27,05,38,2.60
2009,10,27,05,39,2.60
2009,10,27,05,40,2.60
2009,10,27,05,41,2.60
2009,10,27,05,42,2.50
2009,10,27,05,43,2.50
2009,10,27,05,44,2.50
2009,10,27,05,45,2.50
2009,10,27,05,46,2.50
2009,10,27,05,47,2.60
2009,10,27,05,48,2.50
2009,10,27,05,49,2.50
2009,10,27,05,50,2.50
2009,10,27,05,51,2.40
2009,10,27,05,52,2.40
2009,10,27,05,53,2.30
2009,10,27,05,54,2.30
2009,10,27,05,55,2.30
2009,10,27,05,56,2.30
2009,10,27,05,57,2.30
2009,10,27,05,58,2.30
2009,10,27,05,59,2.30
2009,10,27,06,00,2.30
2009,10,27,06,01,2.30
2009,10,27,06,02,2.30
2009,10,27,06,03,2.30
2009,10,27,06,04,2.30
2009,10,27,06,05,2.30
2009,10,27,06,06,2.30
2009,10,27,06,07,2.30
2009,10,27,06,08,2.30
2009,10,27,06,09,2.40
2009,10,27,06,10,2.40
2009,10,27,06,11,2.40
2009,10,27,06,12,2.40
2009,10,27,06,13,2.40
2009,10,27,06,14,2.30
2009,10,27,06,15,2.30
2009,10,27,06,16,2.20
2009,10,27,06,17,2.20
2009,10,27,06,18,2.10
2009,10,27,06,19,2.00
2009,10,27,06,20,2.00
2009,10,27,06,21,1.90
2009,10,27,06,22,1.90
2009,10,27,06,23,1.90
2009,10,27,06,24,1.90
2009,10,27,06,25,1.80
2009,10,27,06,26,1.80
2009,10,27,06,27,1.80
2009,10,27,06,28,1.80
2009,10,27,06,29,1.80
2009,10,27,06,30,1.70
2009,10,27,06,31,1.70
2009,10,27,06,32,1.70
2009,10,27,06,33,1.70
2009,10,27,06,34,1.60
2009,10,27,06,35,1.60
2009,10,27,06,36,1.60
2009,10,27,06,37,1.50
2009,10,27,06,38,1.50
2009,10,27,06,39,1.50
2009,10,27,06,40,1.40
2009,10,27,06,41,1.30
2009,10,27,06,42,1.30
2009,10,27,06,43,1.30
2009,10,27,06,44,1.30
2009,10,27,06,45,1.30
2009,10,27,06,46,1.30
2009,10,27,06,47,1.30
2009,10,27,06,48,1.30
2009,10,27,06,49,1.30
2009,10,27,06,50,1.30
2009,10,27,06,51,1.30
2009,10,27,06,52,1.30
2009,10,27,06,53,1.30
2009,10,27,06,54,1.20
2009,10,27,06,55,1.20
2009,10,27,06,56,1.20
2009,10,27,06,57,1.10
2009,10,27,06,58,1.10
2009,10,27,06,59,1.00
2009,10,27,07,00,1.00
2009,10,27,07,01,1.00
2009,10,27,07,02,1.00
2009,10,27,07,03,1.00
2009,10,27,07,04,1.00
2009,10,27,07,05,0.90
2009,10,27,07,06,0.90
2009,10,27,07,07,0.80
2009,10,27,07,08,0.80
2009,10,27,07,09,0.80
2009,10,27,07,10,0.80
2009,10,27,07,11,0.80
2009,10,27,07,12,0.80
2009,10,27,07,13,0.80
2009,10,27,07,14,0.70
2009,10,27,07,15,0.70
2009,10,27,07,16,0.70
2009,10,27,07,17,0.80
2009,10,27,07,18,0.80
2009,10,27,07,19,0.80
2009,10,27,07,20,0.80
2009,10,27,07,21,0.80
2009,10,27,07,22,0.70
2009,10,27,07,23,0.70
2009,10,27,07,24,0.60
2009,10,27,07,25,0.60
2009,10,27,07,26,0.60
2009,10,27,07,27,0.50
2009,10,27,07,28,0.50
2009,10,27,07,29,0.50
2009,10,27,07,30,0.50
2009,10,27,07,31,0.40
2009,10,27,07,32,0.50
2009,10,27,07,33,0.50
2009,10,27,07,34,0.50
2009,10,27,07,35,0.60
2009,10,27,07,36,0.60
2009,10,27,07,37,0.60
2009,10,27,07,38,0.50
2009,10,27,07,39,0.50
2009,10,27,07,40,0.50
2009,10,27,07,41,0.40
2009,10,27,07,42,0.40
2009,10,27,07,43,0.40
2009,10,27,07,44,0.40
2009,10,27,07,45,0.40
2009,10,27,07,46,0.40
2009,10,27,07,47,0.40
2009,10,27,07,48,0.40
2009,10,27,07,49,0.40
2009,10,27,07,50,0.40
2009,10,27,07,51,0.40
2009,10,27,07,52,0.40
2009,10,27,07,53,0.40
2009,10,27,07,54,0.40
2009,10,27,07,55,0.40
2009,10,27,07,56,0.40
2009,10,27,07,57,0.40
2009,10,27,07,58,0.30
2009,10,27,07,59,0.30
2009,10,27,08,00,0.30
2009,10,27,08,01,0.30
2009,10,27,08,02,0.30
2009,10,27,08,03,0.30
2009,10,27,08,04,0.30
2009,10,27,08,05,0.30
2009,10,27,08,06,0.30
2009,10,27,08,07,0.30
2009,10,27,08,08,0.30
2009,10,27,08,09,0.20
2009,10,27,08,10,0.20
2009,10,27,08,11,0.20
2009,10,27,08,12,0.30
2009,10,27,08,13,0.20
2009,10,27,08,14,0.20
2009,10,27,08,15,0.20
2009,10,27,08,16,0.20
2009,10,27,08,17,0.20
2009,10,27,08,18,0.20
2009,10,27,08,19,0.20
2009,10,27,08,20,0.20
2009,10,27,08,21,0.20
2009,10,27,08,22,0.20
2009,10,27,08,23,0.20
2009,10,27,08,24,0.30
2009,10,27,08,25,0.30
2009,10,27,08,26,0.30
2009,10,27,08,27,0.30
2009,10,27,08,28,0.30
2009,10,27,08,29,0.30
2009,10,27,08,30,0.40
2009,10,27,08,31,0.40
2009,10,27,08,32,0.50
2009,10,27,08,33,0.60
2009,10,27,08,34,0.70
2009,10,27,08,35,0.70
2009,10,27,08,36,0.80
2009,10,27,08,37,0.90
2009,10,27,08,38,0.90
2009,10,27,08,39,1.00
2009,10,27,08,40,1.10
2009,10,27,08,41,1.10
2009,10,27,08,42,1.10
2009,10,27,08,43,1.10
2009,10,27,08,44,1.10
2009,10,27,08,45,1.20
2009,10,27,08,46,1.20
2009,10,27,08,47,1.20
2009,10,27,08,48,1.30
2009,10,27,08,49,1.30
2009,10,27,08,50,1.40
2009,10,27,08,51,1.50
2009,10,27,08,52,1.60
2009,10,27,08,53,1.70
2009,10,27,08,54,1.80
2009,10,27,08,55,1.90
2009,10,27,08,56,2.00
2009,10,27,08,57,2.00
2009,10,27,08,58,2.10
2009,10,27,08,59,2.20
2009,10,27,09,00,2.20
2009,10,27,09,01,2.30
2009,10,27,09,02,2.30
2009,10,27,09,03,2.40
2009,10,27,09,04,2.40
2009,10,27,09,05,2.40
2009,10,27,09,06,2.40
2009,10,27,09,07,2.50
2009,10,27,09,08,2.50
2009,10,27,09,09,2.60
2009,10,27,09,10,2.60
2009,10,27,09,11,2.70
2009,10,27,09,12,2.70
2009,10,27,09,13,2.70
2009,10,27,09,14,2.80
2009,10,27,09,15,2.80
2009,10,27,09,16,2.80
2009,10,27,09,17,2.90
2009,10,27,09,18,2.90
2009,10,27,09,19,2.90
2009,10,27,09,20,3.00
2009,10,27,09,21,3.00
2009,10,27,09,22,3.10
2009,10,27,09,23,3.20
2009,10,27,09,24,3.20
2009,10,27,09,25,3.30
2009,10,27,09,26,3.40
2009,10,27,09,27,3.50
2009,10,27,09,28,3.50
2009,10,27,09,29,3.60
2009,10,27,09,30,3.70
2009,10,27,09,31,3.80
2009,10,27,09,32,3.90
2009,10,27,09,33,3.90
2009,10,27,09,34,4.00
2009,10,27,09,35,4.00
2009,10,27,09,36,4.10
2009,10,27,09,37,4.10
2009,10,27,09,38,4.10
2009,10,27,09,39,4.20
2009,10,27,09,40,4.20
2009,10,27,09,41,4.30
2009,10,27,09,42,4.30
2009,10,27,09,43,4.40
2009,10,27,09,44,4.50
2009,10,27,09,45,4.60
2009,10,27,09,46,4.70
2009,10,27,09,47,4.80
2009,10,27,09,48,4.80
2009,10,27,09,49,5.00
2009,10,27,09,50,5.10
2009,10,27,09,51,5.10
2009,10,27,09,52,5.20
2009,10,27,09,53,5.30
2009,10,27,09,54,5.40
2009,10,27,09,55,5.60
2009,10,27,09,56,5.70
2009,10,27,09,57,5.70
2009,10,27,09,58,5.80
2009,10,27,09,59,5.80
2009,10,27,10,00,5.90
2009,10,27,10,01,5.90
2009,10,27,10,02,5.90
2009,10,27,10,03,6.00
2009,10,27,10,04,6.00
2009,10,27,10,05,6.10
2009,10,27,10,06,6.10
2009,10,27,10,07,6.10
2009,10,27,10,08,6.10
2009,10,27,10,09,6.20
2009,10,27,10,10,6.20
2009,10,27,10,11,6.20
2009,10,27,10,12,6.30
2009,10,27,10,13,6.30
2009,10,27,10,14,6.30
2009,10,27,10,15,6.40
2009,10,27,10,16,6.40
2009,10,27,10,17,6.50
2009,10,27,10,18,6.60
2009,10,27,10,19,6.70
2009,10,27,10,20,6.80
2009,10,27,10,21,6.80
2009,10,27,10,22,6.90
2009,10,27,10,23,7.10
2009,10,27,10,24,7.20
2009,10,27,10,25,7.20
2009,10,27,10,26,7.30
2009,10,27,10,27,7.40
2009,10,27,10,28,7.50
2009,10,27,10,29,7.60
2009,10,27,10,30,7.70
2009,10,27,10,31,7.80
2009,10,27,10,32,7.90
2009,10,27,10,33,8.00
2009,10,27,10,34,8.10
2009,10,27,10,35,8.20
2009,10,27,10,36,8.30
2009,10,27,10,37,8.40
2009,10,27,10,38,8.60
2009,10,27,10,39,8.70
2009,10,27,10,40,8.80
2009,10,27,10,41,8.80
2009,10,27,10,42,8.80
2009,10,27,10,43,8.80
2009,10,27,10,44,8.80
2009,10,27,10,45,8.80
2009,10,27,10,46,8.80
2009,10,27,10,47,8.80
2009,10,27,10,48,8.90
2009,10,27,10,49,8.90
2009,10,27,10,50,9.00
2009,10,27,10,51,9.00
2009,10,27,10,52,9.10
2009,10,27,10,53,9.20
2009,10,27,10,54,9.20
2009,10,27,10,55,9.30
2009,10,27,10,56,9.30
2009,10,27,10,57,9.30
2009,10,27,10,58,9.40
2009,10,27,10,59,9.40
2009,10,27,11,00,9.40
2009,10,27,11,01,9.40
2009,10,27,11,02,9.40
2009,10,27,11,03,9.50
2009,10,27,11,04,9.50
2009,10,27,11,05,9.60
2009,10,27,11,06,9.60
2009,10,27,11,07,9.70
2009,10,27,11,08,9.70
2009,10,27,11,09,9.70
2009,10,27,11,10,9.70
2009,10,27,11,11,9.80
2009,10,27,11,12,9.80
2009,10,27,11,13,9.90
2009,10,27,11,14,9.90
2009,10,27,11,15,9.90
2009,10,27,11,16,10.00
2009,10,27,11,17,10.00
2009,10,27,11,18,10.10
2009,10,27,11,19,10.10
2009,10,27,11,20,10.10
2009,10,27,11,21,10.20
2009,10,27,11,22,10.20
2009,10,27,11,23,10.30
2009,10,27,11,24,10.30
2009,10,27,11,25,10.30
2009,10,27,11,26,10.40
2009,10,27,11,27,10.40
2009,10,27,11,28,10.40
2009,10,27,11,29,10.50
2009,10,27,11,30,10.50
2009,10,27,11,31,10.50
2009,10,27,11,32,10.50
2009,10,27,11,33,10.60
2009,10,27,11,34,10.60
2009,10,27,11,35,10.60
2009,10,27,11,36,10.60
2009,10,27,11,37,10.70
2009,10,27,11,38,10.70
2009,10,27,11,39,10.80
2009,10,27,11,40,10.80
2009,10,27,11,41,10.80
2009,10,27,11,42,10.80
2009,10,27,11,43,10.80
2009,10,27,11,44,10.80
2009,10,27,11,45,10.80
2009,10,27,11,46,10.70
2009,10,27,11,47,10.70
2009,10,27,11,48,10.70
2009,10,27,11,49,10.80
2009,10,27,11,50,10.80
2009,10,27,11,51,10.70
2009,10,27,11,52,10.70
2009,10,27,11,53,10.60
2009,10,27,11,54,10.60
2009,10,27,11,55,10.50
2009,10,27,11,56,10.50
2009,10,27,11,57,10.50
2009,10,27,11,58,10.50
2009,10,27,11,59,10.50
2009,10,27,12,00,10.50
2009,10,27,12,01,10.50
2009,10,27,12,02,10.50
2009,10,27,12,03,10.40
2009,10,27,12,04,10.30
2009,10,27,12,05,10.20
2009,10,27,12,06,10.00
2009,10,27,12,07,9.90
2009,10,27,12,08,9.80
2009,10,27,12,09,9.70
2009,10,27,12,10,9.60
2009,10,27,12,11,9.60
2009,10,27,12,12,9.50
2009,10,27,12,13,9.40
2009,10,27,12,14,9.40
2009,10,27,12,15,9.30
2009,10,27,12,16,9.30
2009,10,27,12,17,9.20
2009,10,27,12,18,9.20
2009,10,27,12,19,9.20
2009,10,27,12,20,9.20
2009,10,27,12,21,9.20
2009,10,27,12,22,9.20
2009,10,27,12,23,9.20
2009,10,27,12,24,9.30
2009,10,27,12,25,9.30
2009,10,27,12,26,9.30
2009,10,27,12,27,9.40
2009,10,27,12,28,9.40
2009,10,27,12,29,9.30
2009,10,27,12,30,9.30
2009,10,27,12,31,9.30
2009,10,27,12,32,9.30
2009,10,27,12,33,9.20
2009,10,27,12,34,9.20
2009,10,27,12,35,9.20
2009,10,27,12,36,9.20
2009,10,27,12,37,9.20
2009,10,27,12,38,9.20
2009,10,27,12,39,9.20
2009,10,27,12,40,9.20
2009,10,27,12,41,9.20
2009,10,27,12,42,9.20
2009,10,27,12,43,9.20
2009,10,27,12,44,9.20
2009,10,27,12,45,9.30
2009,10,27,12,46,9.30
2009,10,27,12,47,9.30
2009,10,27,12,48,9.30
2009,10,27,12,49,9.30
2009,10,27,12,50,9.30
2009,10,27,12,51,9.30
2009,10,27,12,52,9.30
2009,10,27,12,53,9.40
2009,10,27,12,54,9.40
2009,10,27,12,55,9.40
2009,10,27,12,56,9.50
2009,10,27,12,57,9.50
2009,10,27,12,58,9.50
2009,10,27,12,59,9.40
2009,10,27,13,00,9.40
2009,10,27,13,01,9.40
2009,10,27,13,02,9.40
2009,10,27,13,03,9.50
2009,10,27,13,04,9.50
2009,10,27,13,05,9.50
2009,10,27,13,06,9.60
2009,10,27,13,07,9.60
2009,10,27,13,08,9.60
2009,10,27,13,09,9.70
2009,10,27,13,10,9.70
2009,10,27,13,11,9.70
2009,10,27,13,12,9.70
2009,10,27,13,13,9.80
2009,10,27,13,14,9.80
2009,10,27,13,15,9.80
2009,10,27,13,16,9.80
2009,10,27,13,17,9.80
2009,10,27,13,18,9.70
2009,10,27,13,19,9.70
2009,10,27,13,20,9.70
2009,10,27,13,21,9.70
2009,10,27,13,22,9.70
2009,10,27,13,23,9.70
2009,10,27,13,24,9.70
2009,10,27,13,25,9.70
2009,10,27,13,26,9.70
2009,10,27,13,27,9.70
2009,10,27,13,28,9.70
2009,10,27,13,29,9.70
2009,10,27,13,30,9.80
2009,10,27,13,31,9.80
2009,10,27,13,32,9.80
2009,10,27,13,33,9.90
2009,10,27,13,34,9.90
2009,10,27,13,35,9.90
2009,10,27,13,36,9.90
2009,10,27,13,37,10.00
2009,10,27,13,38,10.00
2009,10,27,13,39,10.00
2009,10,27,13,40,10.10
2009,10,27,13,41,10.10
2009,10,27,13,42,10.10
2009,10,27,13,43,10.10
2009,10,27,13,44,10.20
2009,10,27,13,45,10.20
2009,10,27,13,46,10.20
2009,10,27,13,47,10.20
2009,10,27,13,48,10.20
2009,10,27,13,49,10.20
2009,10,27,13,50,10.30
2009,10,27,13,51,10.30
2009,10,27,13,52,10.20
2009,10,27,13,53,10.20
2009,10,27,13,54,10.20
2009,10,27,13,55,10.20
2009,10,27,13,56,10.20
2009,10,27,13,57,10.10
2009,10,27,13,58,10.10
2009,10,27,13,59,10.10
2009,10,27,14,00,10.10
2009,10,27,14,01,10.10
2009,10,27,14,02,10.10
2009,10,27,14,03,10.10
2009,10,27,14,04,10.10
2009,10,27,14,05,10.20
2009,10,27,14,06,10.20
2009,10,27,14,07,10.30
2009,10,27,14,08,10.30
2009,10,27,14,09,10.30
2009,10,27,14,10,10.30
2009,10,27,14,11,10.40
2009,10,27,14,12,10.40
2009,10,27,14,13,10.40
2009,10,27,14,14,10.50
2009,10,27,14,15,10.50
2009,10,27,14,16,10.50
2009,10,27,14,17,10.50
2009,10,27,14,18,10.50
2009,10,27,14,19,10.60
2009,10,27,14,20,10.60
2009,10,27,14,21,10.60
2009,10,27,14,22,10.70
2009,10,27,14,23,10.80
2009,10,27,14,24,10.80
2009,10,27,14,25,10.80
2009,10,27,14,26,10.80
2009,10,27,14,27,10.80
2009,10,27,14,28,10.80
2009,10,27,14,29,10.80
2009,10,27,14,30,10.70
2009,10,27,14,31,10.70
2009,10,27,14,32,10.70
2009,10,27,14,33,10.70
2009,10,27,14,34,10.70
2009,10,27,14,35,10.70
2009,10,27,14,36,10.70
2009,10,27,14,37,10.70
2009,10,27,14,38,10.80
2009,10,27,14,39,10.80
2009,10,27,14,40,10.90
2009,10,27,14,41,10.90
2009,10,27,14,42,11.00
2009,10,27,14,43,11.00
2009,10,27,14,44,11.10
2009,10,27,14,45,11.10
2009,10,27,14,46,11.10
2009,10,27,14,47,11.00
2009,10,27,14,48,11.00
2009,10,27,14,49,11.00
2009,10,27,14,50,11.00
2009,10,27,14,51,11.10
2009,10,27,14,52,11.10
2009,10,27,14,53,11.10
2009,10,27,14,54,11.10
2009,10,27,14,55,11.10
2009,10,27,14,56,11.10
2009,10,27,14,57,11.10
2009,10,27,14,58,11.10
2009,10,27,14,59,11.10
2009,10,27,15,00,11.10
2009,10,27,15,01,11.10
2009,10,27,15,02,11.10
2009,10,27,15,03,11.10
2009,10,27,15,04,11.10
2009,10,27,15,05,11.00
2009,10,27,15,06,11.00
2009,10,27,15,07,10.90
2009,10,27,15,08,11.00
2009,10,27,15,09,11.00
2009,10,27,15,10,11.10
2009,10,27,15,11,11.10
2009,10,27,15,12,11.20
2009,10,27,15,13,11.20
2009,10,27,15,14,11.20
2009,10,27,15,15,11.20
2009,10,27,15,16,11.20
2009,10,27,15,17,11.20
2009,10,27,15,18,11.20
2009,10,27,15,19,11.20
2009,10,27,15,20,11.20
2009,10,27,15,21,11.20
2009,10,27,15,22,11.20
2009,10,27,15,23,11.20
2009,10,27,15,24,11.20
2009,10,27,15,25,11.20
2009,10,27,15,26,11.30
2009,10,27,15,27,11.30
2009,10,27,15,28,11.40
2009,10,27,15,29,11.40
2009,10,27,15,30,11.30
2009,10,27,15,31,11.30
2009,10,27,15,32,11.30
2009,10,27,15,33,11.30
2009,10,27,15,34,11.30
2009,10,27,15,35,11.20
2009,10,27,15,36,11.20
2009,10,27,15,37,11.20
2009,10,27,15,38,11.20
2009,10,27,15,39,11.10
2009,10,27,15,40,11.10
2009,10,27,15,41,11.10
2009,10,27,15,42,11.00
2009,10,27,15,43,11.00
2009,10,27,15,44,10.90
2009,10,27,15,45,10.90
2009,10,27,15,46,10.90
2009,10,27,15,47,10.90
2009,10,27,15,48,10.90
2009,10,27,15,49,10.90
2009,10,27,15,50,10.90
2009,10,27,15,51,10.90
2009,10,27,15,52,10.90
2009,10,27,15,53,10.90
2009,10,27,15,54,10.90
2009,10,27,15,55,10.90
2009,10,27,15,56,10.90
2009,10,27,15,57,10.90
2009,10,27,15,58,10.80
2009,10,27,15,59,10.80
2009,10,27,16,00,10.80
2009,10,27,16,01,10.80
2009,10,27,16,02,10.80
2009,10,27,16,03,10.80
2009,10,27,16,04,10.80
2009,10,27,16,05,10.70
2009,10,27,16,06,10.70
2009,10,27,16,07,10.60
2009,10,27,16,08,10.60
2009,10,27,16,09,10.50
2009,10,27,16,10,10.50
2009,10,27,16,11,10.40
2009,10,27,16,12,10.40
2009,10,27,16,13,10.40
2009,10,27,16,14,10.40
2009,10,27,16,15,10.30
2009,10,27,16,16,10.30
2009,10,27,16,17,10.20
2009,10,27,16,18,10.20
2009,10,27,16,19,10.10
2009,10,27,16,20,10.10
2009,10,27,16,21,10.00
2009,10,27,16,22,10.00
2009,10,27,16,23,9.90
2009,10,27,16,24,9.90
2009,10,27,16,25,9.80
2009,10,27,16,26,9.80
2009,10,27,16,27,9.80
2009,10,27,16,28,9.70
2009,10,27,16,29,9.70
2009,10,27,16,30,9.70
2009,10,27,16,31,9.70
2009,10,27,16,32,9.70
2009,10,27,16,33,9.70
2009,10,27,16,34,9.80
2009,10,27,16,35,9.80
2009,10,27,16,36,9.80
2009,10,27,16,37,9.80
2009,10,27,16,38,9.80
2009,10,27,16,39,9.80
2009,10,27,16,40,9.80
2009,10,27,16,41,9.80
2009,10,27,16,42,9.80
2009,10,27,16,43,9.80
2009,10,27,16,44,9.80
2009,10,27,16,45,9.80
2009,10,27,16,46,9.80
2009,10,27,16,47,9.70
2009,10,27,16,48,9.70
2009,10,27,16,49,9.70
2009,10,27,16,50,9.60
2009,10,27,16,51,9.60
2009,10,27,16,52,9.60
2009,10,27,16,53,9.60
2009,10,27,16,54,9.60
2009,10,27,16,55,9.60
2009,10,27,16,56,9.50
2009,10,27,16,57,9.50
2009,10,27,16,58,9.50
2009,10,27,16,59,9.40
2009,10,27,17,00,9.40
2009,10,27,17,01,9.40
2009,10,27,17,02,9.40
2009,10,27,17,03,9.30
2009,10,27,17,04,9.30
2009,10,27,17,05,9.30
2009,10,27,17,06,9.30
2009,10,27,17,07,9.30
2009,10,27,17,08,9.20
2009,10,27,17,09,9.20
2009,10,27,17,10,9.20
2009,10,27,17,11,9.20
2009,10,27,17,12,9.20
2009,10,27,17,13,9.10
2009,10,27,17,14,9.10
2009,10,27,17,15,9.10
2009,10,27,17,16,9.10
2009,10,27,17,17,9.00
2009,10,27,17,18,9.00
2009,10,27,17,19,8.90
2009,10,27,17,20,8.90
2009,10,27,17,21,8.90
2009,10,27,17,22,8.80
2009,10,27,17,23,8.80
2009,10,27,17,24,8.70
2009,10,27,17,25,8.70
2009,10,27,17,26,8.70
2009,10,27,17,27,8.60
2009,10,27,17,28,8.60
2009,10,27,17,29,8.60
2009,10,27,17,30,8.50
2009,10,27,17,31,8.40
2009,10,27,17,32,8.40
2009,10,27,17,33,8.40
2009,10,27,17,34,8.30
2009,10,27,17,35,8.30
2009,10,27,17,36,8.20
2009,10,27,17,37,8.20
2009,10,27,17,38,8.20
2009,10,27,17,39,8.10
2009,10,27,17,40,8.10
2009,10,27,17,41,8.10
2009,10,27,17,42,8.10
2009,10,27,17,43,8.10
2009,10,27,17,44,8.00
2009,10,27,17,45,8.00
2009,10,27,17,46,8.00
2009,10,27,17,47,7.90
2009,10,27,17,48,7.90
2009,10,27,17,49,7.90
2009,10,27,17,50,7.90
2009,10,27,17,51,7.80
2009,10,27,17,52,7.80
2009,10,27,17,53,7.80
2009,10,27,17,54,7.80
2009,10,27,17,55,7.70
2009,10,27,17,56,7.70
2009,10,27,17,57,7.70
2009,10,27,17,58,7.70